Date,TemperatureHighF,TemperatureAvgF,TemperatureLowF,DewpointHighF,DewpointAvgF,DewpointLowF,HumidityHigh,HumidityAvg,HumidityLow,PressureMaxIn,PressureMinIn,WindSpeedMaxMPH,WindSpeedAvgMPH,GustSpeedMaxMPH,PrecipitationSumIn
2013-1-8,26.8,26.3,25.4,19.6,19.2,18.6,75,74,74,30.07,30.07,7,3,7,0.00
2013-1-9,21.8,17.4,11.3,13.1,9.7,5.1,76,72,69,30.25,30.04,0,0,0,0.00
2013-1-11,17.8,17.2,16.4,10.5,10.0,9.2,74,73,71,29.79,29.77,4,2,4,0.00
2013-1-12,1.4,0.9,0.2,-8.4,-8.8,-9.3,64,63,63,30.09,30.09,0,0,0,0.00
2013-1-17,2.2,1.4,0.2,-6.4,-7.1,-8.0,68,67,67,30.34,30.33,3,1,3,0.00
2013-1-18,30.8,30.1,29.2,17.3,16.8,16.2,58,57,57,30.17,30.17,3,2,3,0.00
2013-1-19,19.1,19.0,18.9,9.1,9.1,9.0,65,65,65,30.25,30.25,4,3,4,0.00
2013-1-22,31.1,23.2,11.2,18.1,13.1,5.0,76,65,58,30.24,30.18,4,1,4,0.00
2013-1-23,23.4,22.0,20.7,15.1,14.2,13.4,74,72,69,30.18,30.16,2,1,2,0.00
2013-1-24,20.2,15.1,12.8,13.4,8.9,6.6,79,76,72,30.15,30.11,6,1,6,0.00
2013-1-25,45.0,42.7,41.2,30.3,29.6,28.8,61,60,56,30.15,30.12,5,2,5,0.00
2013-1-26,39.2,39.2,39.2,28.0,28.0,27.8,64,64,64,29.93,29.93,1,0,1,0.00
2013-1-27,43.7,36.1,29.3,32.1,27.6,22.4,81,71,61,29.84,29.71,14,3,14,0.00
2013-1-28,35.6,27.1,10.1,26.5,19.7,2.8,83,74,65,29.91,29.84,4,1,4,0.03
2013-1-29,28.4,13.4,4.0,16.9,5.3,-3.1,77,70,56,29.99,29.83,6,2,6,0.00
2013-2-1,43.2,36.4,32.9,27.2,25.3,23.5,68,64,46,30.16,30.13,6,2,6,0.00
2013-2-3,37.8,26.4,17.6,26.3,17.2,11.2,76,68,61,30.09,30.05,4,1,4,0.00
2013-2-4,47.7,32.3,17.3,26.9,19.8,10.9,78,62,42,30.08,29.96,10,3,10,0.00
2013-2-5,48.4,31.5,20.2,31.1,21.8,13.7,78,68,51,30.06,29.92,4,1,4,0.00
2013-2-6,47.2,25.0,16.0,29.2,17.1,10.6,82,73,39,30.02,29.93,5,1,5,0.00
2013-2-8,37.6,34.8,31.9,25.4,24.4,22.2,76,66,54,29.92,29.91,4,2,4,0.00
2013-2-10,27.7,27.4,26.6,17.8,17.1,16.0,66,65,63,30.05,30.04,5,3,5,0.02
2013-2-17,35.5,33.8,31.5,23.8,23.2,22.5,69,65,62,29.95,29.89,4,3,4,0.00
2013-2-18,39.1,30.7,15.8,22.0,17.0,9.7,77,58,46,30.12,30.06,5,2,5,0.00
2013-2-19,30.8,26.2,22.0,20.0,17.1,14.3,72,68,64,29.97,29.93,3,2,3,0.00
2013-2-21,24.1,23.6,22.5,15.6,15.2,14.5,71,70,68,29.98,29.97,2,1,2,0.00
2013-2-22,21.2,15.7,11.9,13.0,8.8,5.1,76,74,70,30.03,29.98,2,1,2,0.00
2013-2-24,33.8,33.5,33.1,23.2,22.7,22.2,65,64,64,30.16,30.16,0,0,0,0.00
2013-2-27,37.4,29.1,15.5,19.4,14.4,5.4,64,54,45,30.30,30.24,8,3,8,0.00
2013-2-28,32.9,14.8,9.2,18.9,5.9,1.1,73,68,56,30.30,30.27,3,2,3,0.00
2013-3-1,39.4,33.9,30.1,26.6,23.9,20.8,73,67,57,30.38,30.35,3,1,4,0.00
2013-3-2,43.7,37.0,28.6,31.1,27.1,21.1,73,67,61,30.38,30.12,2,1,2,0.00
2013-3-3,46.3,36.9,31.9,34.3,31.0,27.8,85,79,63,29.92,29.86,4,2,4,0.00
2013-3-4,33.5,29.6,24.3,17.6,15.4,13.5,63,55,50,30.28,30.23,4,1,4,0.00
2013-3-6,56.2,50.8,45.9,31.6,28.2,24.9,48,42,37,29.95,29.84,6,2,6,0.00
2013-3-9,42.8,39.1,37.4,27.9,25.2,20.8,68,58,42,30.07,29.92,12,4,12,0.00
2013-3-10,55.3,52.5,47.3,26.8,24.4,23.1,44,34,29,30.25,30.09,5,2,5,0.00
2013-3-11,49.7,38.7,28.4,25.2,19.8,12.2,71,51,23,30.23,30.07,13,3,13,0.00
2013-3-12,57.4,40.0,28.3,29.7,24.6,20.4,76,57,29,30.30,30.16,9,2,9,0.00
2013-3-14,70.6,60.6,46.1,37.6,29.2,22.3,49,32,18,30.24,30.15,4,2,6,0.00
2013-3-15,71.8,50.7,31.7,34.3,25.7,18.6,71,44,16,30.15,29.99,9,3,9,0.00
2013-3-16,62.3,60.6,57.8,31.4,26.2,17.9,34,27,21,29.94,29.90,4,3,4,0.00
2013-3-18,48.4,39.7,20.0,16.7,11.1,3.6,69,34,17,30.02,29.94,15,4,15,0.00
2013-3-19,52.2,48.0,36.4,13.3,5.2,-1.1,26,18,12,30.24,30.18,7,3,11,0.00
2013-3-20,57.1,40.8,20.7,25.4,19.6,11.4,69,46,27,30.11,29.86,6,2,6,0.00
2013-3-21,44.3,40.9,35.6,25.2,23.4,22.0,59,50,46,29.94,29.86,6,2,6,0.00
2013-3-22,34.6,24.2,16.6,21.8,14.6,7.7,75,67,48,29.95,29.93,9,2,11,0.00
2013-3-31,63.5,63.5,63.4,26.7,26.2,24.6,25,24,24,30.11,30.11,8,3,8,0.00
2013-4-3,71.1,59.8,43.4,31.1,27.7,23.9,46,30,19,30.21,30.10,14,3,14,0.00
2013-4-4,58.0,37.6,32.2,35.1,24.6,19.6,69,60,41,30.20,30.16,2,1,2,0.00
2013-4-8,36.0,36.0,35.8,28.4,28.3,28.2,74,74,73,29.83,29.83,2,1,2,0.00
2013-4-10,26.1,25.8,25.6,15.5,15.2,15.0,64,64,64,30.22,30.22,4,3,4,0.00
2013-4-13,57.8,47.1,42.1,39.7,30.8,22.3,74,54,44,29.63,29.60,7,4,7,0.00
2013-4-17,38.3,38.0,37.4,24.8,24.4,23.6,58,58,57,30.20,30.19,5,2,5,0.00
2013-4-19,50.0,49.1,47.9,29.2,28.8,28.4,47,46,44,29.98,29.97,4,1,4,0.00
2013-4-20,61.2,53.2,45.7,29.1,28.0,26.9,52,39,29,30.07,29.96,12,5,12,0.00
2013-4-21,64.6,58.3,40.5,36.7,29.4,22.3,74,36,22,30.12,29.98,10,4,10,0.00
2013-4-22,32.0,29.4,27.0,24.7,23.3,21.3,82,78,74,30.35,30.28,6,4,6,0.06
2013-4-23,51.1,44.9,36.7,25.6,20.5,16.8,48,38,32,30.20,30.16,5,2,5,0.00
2013-4-24,51.7,48.5,43.6,22.7,22.5,22.4,43,36,32,30.16,30.15,0,0,0,0.00
2013-4-25,69.5,64.7,54.2,20.3,17.9,14.0,24,17,13,30.07,29.99,8,4,10,0.00
2013-4-27,80.1,74.9,62.8,32.0,28.6,25.9,25,19,15,30.16,30.09,9,3,9,0.00
2013-4-28,73.4,66.5,57.2,33.0,29.9,25.8,36,26,18,30.04,29.99,14,4,14,0.00
2013-5-1,45.0,40.1,36.2,30.7,29.0,26.5,72,64,54,30.57,30.46,6,2,6,0.11
2013-5-3,58.5,58.5,58.5,26.3,26.3,26.3,29,29,29,30.16,30.16,1,1,1,0.00
2013-5-4,50.2,50.0,49.5,37.7,37.5,37.3,63,62,61,30.24,30.22,4,3,4,0.00
2013-5-5,61.9,60.6,58.0,33.8,33.4,32.9,40,36,34,30.14,30.13,6,3,6,0.00
2013-5-6,72.0,70.0,61.9,39.3,34.1,31.9,43,27,24,30.15,30.01,6,3,6,0.00
2013-5-8,68.8,66.6,62.8,37.6,36.6,35.9,38,33,31,30.17,30.15,6,2,6,0.00
2013-5-9,74.0,73.8,73.8,38.4,38.4,38.4,28,28,28,30.19,30.19,3,1,3,0.00
2013-5-12,87.7,84.4,79.6,41.6,35.7,32.8,21,18,16,30.20,30.15,9,5,9,0.00
2013-5-14,84.8,84.1,83.0,31.1,30.6,30.3,16,15,15,29.99,29.99,8,4,8,0.00
2013-5-15,73.4,71.9,70.2,41.9,39.9,38.2,36,32,28,30.02,29.99,7,4,7,0.00
2013-5-17,72.4,69.1,64.4,41.4,39.9,38.9,39,35,32,29.99,29.92,15,6,15,0.00
2013-5-18,77.9,67.2,56.9,47.8,43.7,40.1,63,45,28,30.02,29.93,13,5,13,0.04
2013-5-19,56.5,52.4,49.1,49.1,45.6,43.2,81,78,72,30.09,30.05,6,2,6,0.20
2013-5-20,55.4,55.3,54.9,38.0,37.6,37.5,53,51,51,30.20,30.19,7,2,7,0.00
2013-5-21,70.6,69.3,65.7,41.3,40.7,40.3,41,36,34,30.00,29.99,3,2,3,0.00
2013-5-24,80.3,75.6,64.1,31.6,29.1,28.1,26,19,16,30.05,30.02,6,2,6,0.00
2013-5-25,86.0,83.1,77.0,33.5,31.0,28.8,19,16,15,29.96,29.94,8,4,8,0.00
2013-5-26,81.2,79.0,75.6,33.0,32.7,32.3,21,19,18,29.93,29.92,2,1,2,0.00
2013-5-29,54.0,51.5,49.1,45.6,44.4,42.8,80,77,73,29.84,29.83,6,3,6,0.02
2013-6-1,65.5,65.0,64.8,41.1,40.8,40.5,42,41,41,30.32,30.31,8,3,8,0.00
2013-6-2,81.9,80.0,77.4,33.5,31.8,31.1,19,18,17,29.83,29.83,9,5,9,0.00
2013-6-7,52.9,51.6,50.0,43.5,42.2,40.7,70,70,70,30.17,30.17,4,2,4,0.00
2013-6-8,66.4,66.3,66.2,48.2,48.0,47.6,52,52,51,30.11,30.10,4,3,5,0.00
2013-6-9,90.5,87.9,82.4,38.5,37.7,36.8,21,18,16,29.97,29.96,4,1,4,0.00
2013-7-11,86.8,86.8,86.6,45.1,44.4,44.0,24,23,23,29.96,29.96,2,1,2,0.00
2013-7-15,97.2,89.2,73.1,52.0,47.4,42.1,41,25,16,30.12,30.05,6,1,6,0.00
2013-7-16,94.1,77.3,59.4,57.4,50.6,44.7,60,41,25,30.31,30.12,8,2,11,0.00
2013-7-17,93.8,76.0,56.9,58.8,52.4,45.6,72,47,26,30.32,30.18,5,2,5,0.00
2013-7-22,100.4,99.9,99.5,36.0,34.2,33.3,11,10,10,30.05,30.04,12,3,12,0.00
2013-7-24,91.4,89.6,87.5,54.8,52.6,50.1,30,29,25,30.23,30.17,6,3,6,0.00
2013-7-26,94.7,92.3,90.2,48.5,47.3,45.5,23,22,21,30.22,30.18,7,3,7,0.00
2013-7-31,79.6,77.9,76.9,54.0,53.4,52.5,44,43,39,30.35,30.31,3,2,4,0.00
2013-8-13,88.2,82.4,76.9,50.6,48.3,43.0,39,31,24,30.31,30.24,4,2,4,0.00
2013-8-20,90.5,78.5,71.6,55.0,51.3,49.7,47,39,30,30.20,30.15,4,2,4,0.00
2013-9-10,66.6,63.4,61.2,55.3,54.1,53.3,75,72,65,30.27,30.26,2,0,2,0.00
2013-9-16,64.1,64.1,64.1,58.5,58.3,58.2,82,81,81,30.20,30.20,3,2,3,0.00
2013-9-27,41.4,39.0,37.8,36.3,34.4,33.4,84,84,82,30.04,30.04,1,0,1,0.02
2013-9-29,68.8,68.8,68.8,43.5,43.3,42.6,40,40,39,29.94,29.94,11,5,11,0.00
2013-9-30,74.5,74.2,74.2,42.5,42.4,42.3,32,32,32,29.89,29.89,5,2,5,0.00
2013-10-29,28.8,28.6,28.4,22.5,22.3,22.2,77,77,77,30.01,30.00,0,0,0,0.00
2013-10-30,32.0,32.0,32.0,27.8,27.7,27.6,84,84,83,29.98,29.98,0,0,0,0.00
2013-10-31,39.8,38.1,35.6,33.5,32.3,30.6,82,80,78,30.01,29.99,2,1,2,0.00
2013-11-1,51.7,47.4,39.2,30.6,29.3,27.2,62,50,44,30.22,30.20,3,1,4,0.00
2013-11-2,43.6,41.5,40.9,34.8,33.7,33.3,75,74,71,30.05,30.03,2,2,2,0.00
2013-11-3,49.3,46.9,45.0,34.3,32.0,26.9,66,57,42,29.81,29.81,6,2,6,0.00
2013-11-4,41.9,38.5,28.3,18.9,18.1,16.2,60,44,39,30.05,29.98,5,2,5,0.00
2013-11-8,59.9,59.2,58.0,30.6,29.9,28.9,33,33,33,29.97,29.96,7,3,7,0.00
2013-11-10,61.7,61.7,61.7,36.5,36.5,36.5,39,39,39,30.21,30.21,0,0,0,0.00
2013-11-21,24.3,17.4,12.2,15.6,8.6,3.3,69,68,67,30.53,30.43,2,0,2,0.00
2013-11-26,13.7,13.7,13.5,8.1,8.1,7.9,78,78,78,30.43,30.43,3,2,3,0.00
2013-11-29,27.0,26.9,26.8,18.6,18.5,18.4,71,70,70,30.22,30.22,4,1,4,0.00
2013-11-30,30.6,29.7,29.0,19.8,19.4,19.2,67,65,64,30.21,30.20,4,2,4,0.00
2013-12-1,50.0,42.7,35.3,34.8,30.1,24.3,65,61,50,30.05,29.95,4,2,4,0.00
2013-12-2,50.0,39.7,30.2,28.9,27.0,24.2,80,63,44,29.79,29.67,15,5,15,0.00
2013-12-3,22.1,14.7,9.9,16.9,8.5,3.5,80,76,74,29.96,29.75,6,4,6,0.00
2013-12-14,11.7,11.5,11.0,5.0,4.7,4.0,74,74,73,30.28,30.28,3,2,4,0.00
2014-1-1,32.4,31.0,30.1,27.6,27.0,26.4,86,85,82,30.33,30.32,5,2,5,0.00
2014-1-2,27.4,20.0,13.0,17.8,13.2,8.2,82,75,67,30.28,30.17,4,1,4,0.00